Lid_Strength_Index
6 5 4 4 3 2 3 4 6 6 7 8 8 8 8 8 9 10 10 11 11 11 11 11 12 11 11 11 11 11 11 11 12 11 10 11 11 11 10 10 10 9 9
8 7 7 6 6 5 6 7 7 9 9 9 10 10 10 11 11 11 12 12 12 12 12 12 13 12 12 12 12 12 12 11 12 14 12 12 12 11 11 11 10 10 10
9 8 9 9 8 8 9 9 10 11 10 11 11 11 12 12 12 12 12 13 13 13 13 13 13 13 14 13 13 12 12 12 12 13 13 12 11 11 11 10 10 10 9
10 10 10 10 10 10 10 11 12 11 12 12 12 13 13 13 13 13 13 13 14 14 13 13 13 13 13 13 13 13 13 13 13 13 13 12 12 11 11 11 11 9 9
11 11 12 12 12 13 12 13 13 13 13 13 13 14 14 14 14 14 14 14 14 14 14 14 13 13 12 12 13 13 12 13 13 13 13 12 12 12 12 11 11 10 9
12 13 13 12 12 13 13 13 13 14 14 14 14 14 13 14 12 13 14 14 14 14 14 14 13 14 12 12 12 12 11 12 12 13 13 13 12 11 11 11 11 11 13
12 13 13 13 14 14 14 14 15 15 15 15 15 13 13 12 12 13 13 14 14 14 14 13 14 13 13 13 12 11 12 11 11 11 12 12 11 10 10 11 11 11 11
13 13 14 14 15 15 15 15 16 16 16 15 15 14 14 13 12 13 13 13 13 13 13 13 13 13 13 13 12 12 12 11 11 11 10 10 9 9 9 10 10 10 10
14 14 15 15 15 16 16 16 16 16 16 16 15 15 14 14 12 12 13 13 13 13 13 13 13 13 12 11 11 13 12 11 10 9 8 7 7 7 8 9 10 11 12
14 14 15 15 15 15 16 16 17 16 17 17 17 17 17 14 11 12 13 13 14 14 13 13 13 13 12 11 12 13 14 12 10 10 9 8 8 9 9 9 9 11 11
15 15 16 16 16 16 16 17 17 17 18 18 18 18 17 16 13 12 12 13 13 14 14 14 14 12 12 11 11 13 13 10 10 10 10 10 11 10 9 9 9 10 11
16 16 16 16 16 17 17 18 18 18 18 19 18 18 17 17 15 12 12 12 12 14 14 14 14 12 12 12 12 11 12 12 13 13 14 13 12 11 10 10 10 10 9
16 16 17 18 18 18 18 19 19 19 18 19 18 18 18 17 16 13 13 12 12 14 14 13 12 13 13 15 13 14 17 16 16 16 15 14 13 12 12 12 11 11 11
17 18 19 19 20 20 19 18 18 19 19 18 18 18 18 17 17 17 16 15 14 14 13 16 15 15 15 16 18 17 17 17 17 17 17 16 14 14 14 13 14 13 13
18 19 19 19 19 20 19 19 18 18 17 18 17 17 18 18 17 15 16 17 17 16 19 21 20 19 19 19 20 20 18 18 19 18 18 17 17 16 15 14 14 13 14
20 20 20 20 20 20 20 20 17 17 15 15 15 17 18 16 14 13 13 13 13 14 21 21 20 20 20 20 20 20 20 20 19 19 18 19 18 18 17 15 14 14 14
18 20 20 20 20 20 20 19 20 19 16 14 14 14 15 16 13 13 13 13 14 18 21 23 21 21 21 21 21 21 21 20 21 20 20 20 19 19 18 17 16 15 15
22 21 20 20 20 19 19 20 20 20 20 20 16 14 13 13 13 13 12 15 20 24 24 23 23 23 23 23 23 22 22 22 22 21 21 21 21 20 19 19 17 17 16
22 21 21 21 20 20 21 21 21 22 22 23 23 19 19 14 12 12 12 20 22 23 26 26 25 25 25 24 24 24 24 23 23 23 23 23 22 22 21 20 19 19 18
24 23 22 22 22 23 24 23 23 24 25 24 25 20 24 23 21 21 22 24 25 24 25 25 26 26 26 26 25 25 25 25 24 24 23 23 22 22 21 21 20 20 19
24 25 25 25 23 23 22 22 22 24 24 23 21 21 20 20 20 21 23 27 25 25 25 26 26 27 27 27 27 26 25 24 25 25 24 24 24 23 22 21 21 20 20
27 27 26 25 24 23 22 21 22 22 21 21 22 24 16 18 22 23 24 25 25 26 25 25 26 26 26 25 25 24 23 23 24 25 25 25 25 24 24 22 23 21 21
29 29 29 27 24 23 24 23 22 22 22 24 22 22 23 21 22 23 24 24 26 27 28 28 26 25 23 23 23 22 22 22 23 24 25 24 25 24 24 24 23 23 22
29 27 26 26 26 25 24 23 23 22 22 22 22 23 23 22 23 25 25 25 26 25 25 25 24 23 21 21 22 23 23 23 24 25 25 25 24 25 25 25 24 23 22
31 30 28 26 26 24 24 24 24 23 24 24 24 25 25 23 24 25 23 23 22 22 22 21 21 21 21 21 21 22 24 22 23 25 27 27 26 26 26 26 24 24 23
30 29 28 28 26 26 25 23 24 23 23 23 22 22 22 22 22 21 21 21 21 21 20 20 20 21 21 22 22 21 23 21 23 24 25 26 26 25 26 26 25 24 23